Regional Weather Roundup
Issued by NWS

Home | Current Version | Previous Version | Graphics & Text | Print | Product List | Glossary On
Versions: 1 2 3 4 5 6 7 8 9 10 11 12 13 14 15 16 17 18 19 20 21 22 23 24 25 26 27 28 29 30 31 32 33 34 35 36 37 38 39 40 41 42 43 44 45 46 47 48 49
000
ASUS45 KSLC 022310
RWRUT

UTAH REGIONAL WEATHER ROUNDUP
NATIONAL WEATHER SERVICE SALT LAKE CITY UT
500 PM MDT SAT MAY 02 2015

UTZ001>011-023>025-030000-

NORTHERN UTAH

CITY           SKY/WX    TMP DP  RH WIND       PRES   REMARKS
BRIGHAM CITY   MOSUNNY   77  29  17 CALM      29.84F
HILL AFB       SUNNY     78  37  22 VRB5      29.85F
LOGAN          SUNNY     76  32  20 SW8       29.84F
OGDEN          SUNNY     79  33  19 NW8       29.83F
PROVO AIRPORT  PTSUNNY   79  37  22 SW7       29.84F
SALT LAKE CITY PTSUNNY   81  28  14 NW6       29.80F
VERNAL         CLOUDY    71  30  21 N3        29.92S
WENDOVER       CLOUDY    79  27  14 NW9       29.83F
HEBER CITY     PTSUNNY   77  23  13 SW20G28   29.89F
WEST JORDAN    SUNNY     81  36  19 W6        29.84F

$$

UTZ012>022-026-027-030000-

SOUTHERN/CENTRAL UTAH

CITY           SKY/WX    TMP DP  RH WIND       PRES   REMARKS
BLANDING       SUNNY     78  21  12 W16G22    30.01F
BRYCE CANYON   PTSUNNY   66  24  20 NW13      30.09F
CEDAR CITY     MOSUNNY   74  17  11 MISG      29.94F
DELTA          MOSUNNY   81  22  11 SW10G18   29.85F
HANKSVILLE     MOSUNNY   86  23  10 W17G32    29.85F
MILFORD        MOSUNNY   81  19  10 SW24G35   29.89F
MOAB/CYNLANDS  SUNNY     83  17   8 SW14G24   29.82F
PRICE          PTSUNNY   78  21  12 W15       29.91F
ST GEORGE      MOCLDY    88  28  11 SW10G21   29.81F
KANAB          PTSUNNY   77  28  16 SW12      29.97F

$$

REGIONAL REPORTS     COLORADO/ARIZONA

CITY           SKY/WX    TMP DP  RH WIND       PRES   REMARKS
CRAIG, CO      CLOUDY    59  43  55 E3        30.04R
GRAND JUNCTION MOSUNNY   80  25  13 W15G26    29.85F
RIFLE          CLOUDY    74  32  21 E12       29.92F
MONTROSE       PTSUNNY   73  30  20 SE14      29.95F
CORTEZ         SUNNY     78  18  10 NW13G20   29.97F
PAGE, AZ       PTSUNNY   83  25  12 W9G22     29.88
GRAND CANYON   CLOUDY    67  25  20 W14G24    30.05F
KINGMAN        MOSUNNY   87  26  11 SW20      29.86F
FLAGSTAFF      MOSUNNY   69  22  16 S12       30.07F

$$

REGIONAL REPORTS    NEVADA/IDAHO/WYOMING

CITY           SKY/WX    TMP DP  RH WIND       PRES   REMARKS
LAS VEGAS, NV  PTSUNNY   91  25   9 S13       29.71F
ELY            MOSUNNY   75  20  12 S20G35    29.93F HAZE
ELKO           MOSUNNY   76  26  15 SW9       29.84F
POCATELLO, ID  MOSUNNY   80  24  12 W26G32    29.81F
BURLEY         MOSUNNY   78  28  16 W9        29.80F
EVANSTON, WY   PTSUNNY   64  28  25 W14       29.99F
ROCK SPRINGS   CLOUDY    56  39  53 S20       29.98F
KEMMERER       MOSUNNY   64  27  24 W25G33    30.00S

$$


USA.gov is the U.S. government's official web portal to all federal, state and local government web resources and services.